User: anonymous   Login
Location: Fort Wayne
(41.1310°N, 85.1290°W)
Time: 07:25:20
(UTC-05:00)
Language:

Cosmos 2082 - Orbit

View from above orbital plane
View from above orbital plane
View from above satellite
View from above satellite

Ground track
Ground track

The orbit data is extracted from the following two-line orbital elements,

1 20624U 90046A   15058.67649039 -.00000182  00000-0 -70710-4 0  9998
2 20624 071.0415 173.6989 0017049 235.4224 124.5291 14.14136606278362
Epoch (UTC): 27 February 2015 16:14:08
Eccentricity: 0.0017049
inclination: 71.0415°
perigee height: 833 km
apogee height: 857 km
right ascension of ascending node: 173.6989°
argument of perigee: 235.4224°
revolutions per day: 14.14136606
mean anomaly at epoch: 124.5291°
orbit number at epoch: 27836

The dashed part of the orbit path shows where the satellite is in the earth's shadow,  

DLR